Location: Temagami
(47.0645°N, 79.7909°W)
Time: 22:50:57
(UTC-04:00)

ISS - Pass Details

Date: 22 June 2024
Orbit: 409 x 424 km, 51.6° (Epoch: 18 July)

Event Time Altitude Azimuth Distance (km) Brightness Sun altitude
Exits shadow 04:40:02 - 191° (S) 1,916 -0.9 -6.5°
Reaches altitude 10° 04:41:28 10° 176° (S) 1,481 -1.4 -6.3°
Maximum altitude 04:43:36 16° 136° (SE) 1,170 -1.5 -6.1°
Drops below altitude 10° 04:45:46 10° 96° (E) 1,495 -0.3 -5.8°
Sets 04:48:25 0° 74° (ENE) 2,368 1.3 -5.5°
